Starlink 31596

operational
NORAD ID: 59336 Int'l Des: 2024-057 Owner: SPXS Country: US Constellation: starlink
LEOCIRCULAR

关于 Starlink 31596

正在加载描述...

实时位置

正在加载3D地球...

即将过境

高度历史

Altitude vs Time

uPlot chart will show altitude changes over time

两行轨道根数

1 59336U 24057S 25351.18007639 .00002028 00000-0 83196-4 0 9997
2 59336 43.0029 292.7571 0000428 300.9495 59.1315 15.27578054 97221
Epoch: Dec 17, 2025 • Age: 19 hours

当前状态

高度 494.6 km
速度 7.62 km/s
星下点 -39.41°S, 157.54°E
发射日期 Mar 25, 2024
运行时间 1.7 years
类型 internet

技术详情

分类 Payload
质量 730.00 kg
干质量 700.00 kg
总质量 730.00 kg
长度 0.30 m
直径 4.10 m
跨度 29.00 m
形状 Box + pan
制造商 SPXS
平台类型 Starlink V2M
阶段状态 In Orbit
所有者/国家 SPXS/US

大型星座

Loading constellations...